* Astronomy

Members Login
Post Info TOPIC: Asteroid 2010 OE101


L

Posts: 131433
Date:
Asteroid 2010 OE101
Permalink  
 


Orbital elements:
2010 OE101
Epoch 2010 July 23.0 TT = JDT 2455400.5 MPC
M 354.87503 (2000.0) P Q
n 0.14964171 Peri. 174.44578 +0.98510773 -0.15074265
a 3.5137237 Node 195.00734 +0.14288382 +0.98527369
e 0.6153430 Incl. 18.62534 +0.09563984 +0.08069947
P 6.59 H 17.8 G 0.15 U 6

MPEC 2010 - P11


__________________
Page 1 of 1  sorted by
 
Quick Reply

Please log in to post quick replies.



Create your own FREE Forum
Report Abuse
Powered by ActiveBoard